User: anonymous   Login
Location: Unspecified
(0.0000°N, 0.0000°E)
Time: 00:26:49
(UTC+00:00)
Language:

UHF F/O F4 - Orbit

View from above orbital plane
View from above orbital plane
View from above satellite
View from above satellite

Ground track
Ground track

The orbit data is extracted from the following two-line orbital elements,

1 23467U 95003A   16092.83257653 0.00000000  00000-0  00000-0 0    09
2 23467   9.1932  30.7909 0006661 282.2439  77.6861  1.00270000    00
Epoch (UTC): 01 April 2016 19:58:54
Eccentricity: 0.0006661
inclination: 9.1932°
perigee height: 35758 km
apogee height: 35815 km
right ascension of ascending node: 30.7909°
argument of perigee: 282.2439°
revolutions per day: 1.00270000
mean anomaly at epoch: 77.6861°
orbit number at epoch: 0

The dashed part of the orbit path shows where the satellite is in the earth's shadow,  

DLR